Tracking 17884 objects as of 3-December-2016
HD Live streaming from Space Station
objects crossing your sky now

NAVSTAR 28 (USA 85)

Track NAVSTAR 28 (USA 85) now!
NAVSTAR 28 (USA 85) is classified as:


NORAD ID: 22231
Int'l Code: 1992-079A
Perigee: 19,964.5 km
Apogee: 20,415.6 km
Inclination: 55.3 °
Period: 718.0 minutes
Semi major axis: 26561 km
RCS: 3.981 m2 (large)
Launch date: November 22, 1992
Source: United States (US)
Launch site: AIR FORCE EASTERN TEST RANGE (AFETR)
PRN:
Your satellite tracking list
Your tracking list is empty





NASA's NSSDC Master Catalog

Two Line Element Set (TLE):
1 22231U 92079A   16338.34371060  .00000021  00000-0  00000+0 0  9994
2 22231  55.3434 234.7291 0084908 305.0373 231.4086  2.00555798176069
Source of the keplerian elements: AFSPC